RH
21 23 23 22 21 20 18 17 15 14 13 12 12 12 15 22 26 27 26 24 24 22 19 18 17 18 18 17 16 16 14 11 11 10 9 9 9 9 8 8 7 7 6 7 8
16 16 16 15 13 11 11 11 12 13 12 11 12 14 14 17 24 28 27 26 24 22 20 20 19 19 18 19 19 17 14 14 13 12 11 10 10 9 8 7 6 6 5 6 6
10 12 13 13 13 13 12 11 12 10 10 11 13 15 17 23 28 30 28 26 24 25 23 22 20 19 20 21 18 15 15 14 14 13 11 10 8 7 6 5 5 5 6 5 6
19 20 18 17 16 15 13 13 13 13 14 13 16 17 22 32 33 31 29 28 28 26 24 22 22 22 21 18 16 14 14 14 13 12 10 8 7 6 6 5 5 5 5 5 6
20 24 30 29 28 28 29 27 23 20 21 21 25 31 37 36 35 33 31 29 27 25 22 23 24 22 20 17 15 16 15 14 12 10 8 7 7 6 5 5 4 4 5 5 6
20 19 31 33 30 34 33 32 32 38 42 46 47 43 41 37 34 32 29 27 24 24 26 25 24 21 18 18 17 16 15 14 11 10 9 8 7 6 4 4 3 6 13 18 18
24 25 24 32 35 34 34 36 45 61 57 50 49 49 45 38 33 29 27 25 29 31 30 27 23 21 20 21 20 18 16 13 13 12 11 10 7 4 4 5 22 30 48 77 62
30 38 35 41 36 36 44 58 68 66 60 55 48 35 31 30 28 28 34 36 35 33 30 27 25 23 24 22 21 17 16 15 15 14 11 9 6 4 14 49 51 48 64 77 86
32 43 40 34 38 45 57 69 76 68 61 50 35 26 25 25 27 32 37 38 36 33 30 27 26 26 26 24 20 18 17 17 16 14 11 6 4 6 28 51 58 72 78 75 100
33 40 40 37 30 51 64 74 78 68 57 44 31 26 26 27 32 37 40 38 36 34 31 31 32 30 26 22 24 22 20 19 17 14 9 5 5 17 58 54 56 70 78 98 96
38 34 35 34 32 45 67 78 65 57 49 37 25 31 38 40 43 44 42 40 39 37 34 34 32 29 26 27 24 21 20 20 17 12 9 6 12 23 45 55 67 83 97 100 99
30 32 28 22 24 30 43 63 62 54 46 23 37 47 47 48 47 50 48 44 42 39 38 35 31 31 29 25 25 23 22 21 17 12 8 7 21 51 58 57 66 84 94 100 100
44 30 28 22 32 30 39 56 52 47 30 23 42 47 50 50 47 50 46 43 42 41 39 36 37 30 27 28 26 26 24 22 18 12 10 11 14 94 76 64 74 89 100 100 100
48 30 24 22 34 37 29 29 30 27 20 31 39 52 48 45 52 48 48 47 46 45 42 37 34 26 27 30 28 29 27 23 15 12 10 14 12 20 75 65 77 83 90 100 100
40 36 29 29 26 26 26 25 23 22 20 29 30 39 42 44 44 57 53 54 49 42 36 31 27 23 31 32 32 30 29 22 15 13 11 16 63 34 100 94 61 78 91 98 100
41 44 36 34 21 20 23 24 22 22 23 24 29 35 43 46 54 56 56 55 42 36 32 31 25 29 35 36 36 35 30 22 18 16 29 67 100 82 86 39 34 53 80 92 96
36 58 50 38 25 20 20 22 24 24 30 31 34 41 45 52 60 63 60 49 31 29 27 24 24 37 38 38 37 36 31 23 17 32 68 100 100 92 65 64 32 29 49 79 83
18 52 56 38 27 21 20 24 34 36 41 44 47 49 55 58 61 60 56 34 33 30 32 28 36 35 39 42 40 39 29 19 22 21 51 47 65 100 100 59 35 32 28 41 62
17 18 25 25 24 21 22 33 42 48 54 55 52 59 62 59 50 45 38 38 37 37 36 30 34 38 42 46 46 38 24 26 22 20 43 93 100 100 100 94 68 22 23 22 38
16 17 23 24 24 22 24 38 48 62 60 61 65 68 68 54 49 44 42 43 41 43 32 33 34 40 46 50 47 44 31 23 26 35 57 100 100 100 100 97 32 21 16 14 18
15 17 21 24 27 24 25 43 53 58 61 66 74 71 65 49 46 46 46 44 45 41 32 36 37 45 48 54 58 41 30 21 16 26 39 61 100 100 79 54 25 22 20 13 10
24 22 22 27 31 29 29 46 54 61 64 70 76 76 59 52 51 46 45 45 46 39 36 39 36 50 61 68 52 42 29 14 16 31 52 68 46 59 94 38 32 28 26 16 10
28 30 32 32 32 32 42 63 64 62 68 66 72 70 61 54 50 47 45 47 44 46 47 49 50 63 69 59 52 49 24 13 13 28 20 66 61 90 100 78 69 48 38 29 23
37 36 30 29 29 30 41 64 62 68 71 66 60 56 55 52 50 47 46 43 46 55 65 52 59 79 71 72 53 37 24 13 15 18 52 79 100 100 86 100 74 50 38 47 79
39 39 38 33 40 47 55 62 67 71 76 72 58 63 62 56 49 48 44 42 49 70 79 65 64 75 78 80 61 40 18 15 17 28 70 64 97 93 100 82 70 62 53 40 68
43 52 55 56 64 70 71 69 70 74 80 80 74 69 61 52 47 43 37 42 45 66 88 86 81 81 81 75 64 44 21 18 17 22 32 89 97 100 93 90 69 67 64 39 56
58 59 58 62 64 74 77 75 78 88 89 93 83 69 53 49 43 40 41 44 53 73 76 79 90 92 78 84 67 35 31 13 13 21 89 96 100 100 99 86 88 64 55 40 39
Wind_Speed
25 26 27 27 28 29 30 31 31 30 30 31 30 29 29 30 30 31 32 33 34 34 34 33 34 37 39 41 43 46 48 48 52 56 58 61 63 62 64 67 67 67 66 69 73
27 28 29 29 29 30 30 30 29 29 29 29 29 28 28 30 29 28 30 31 31 32 33 36 38 39 42 43 44 47 50 51 55 59 61 64 66 66 69 71 72 71 72 71 75
28 30 32 34 33 33 33 32 32 31 30 30 29 29 28 28 28 29 29 31 31 34 37 39 41 43 44 45 47 49 50 53 54 58 62 65 69 72 75 77 79 80 73 75 78
21 23 24 26 27 29 30 31 32 32 30 30 29 28 28 27 29 30 31 34 36 39 41 42 43 43 44 45 48 50 53 56 59 63 67 69 74 77 80 82 80 80 83 84 84
25 24 24 25 26 26 26 26 27 28 28 28 27 26 26 26 30 32 35 37 39 41 42 42 43 44 44 47 50 52 55 58 62 66 70 77 80 82 81 78 81 83 85 88 91
28 29 27 27 27 27 27 26 26 25 24 24 23 25 27 29 33 35 37 38 40 40 40 42 42 43 46 49 52 55 57 60 62 67 72 80 81 78 77 75 74 70 66 62 64
29 29 28 27 28 29 28 27 25 23 23 24 26 28 31 34 35 37 38 39 37 38 38 38 41 44 46 48 50 54 58 59 64 70 78 77 73 68 66 64 50 49 49 47 52
27 27 27 28 29 29 29 26 24 25 26 27 28 30 32 33 35 36 33 34 36 36 36 38 40 44 46 49 53 56 59 62 65 70 71 75 66 54 53 47 40 38 39 47 53
28 27 27 30 30 30 29 27 26 26 27 28 30 30 35 34 33 32 33 33 34 34 35 38 42 45 46 50 54 60 64 66 68 69 68 63 61 47 44 43 36 33 35 38 36
29 29 30 31 32 31 29 28 28 28 29 29 30 33 33 32 31 32 32 31 32 34 37 39 42 45 47 52 56 58 62 64 66 65 62 57 48 42 34 34 33 32 30 35 34
29 30 33 31 33 31 30 29 29 28 27 30 32 32 28 31 31 30 31 31 33 36 40 43 45 48 50 55 56 61 62 62 61 63 61 51 41 38 32 30 32 30 33 30 33
28 30 35 31 31 29 31 29 30 31 29 30 28 29 30 30 31 31 32 33 34 37 41 43 44 46 52 54 56 60 62 60 61 58 57 48 31 33 29 28 29 29 29 29 32
32 32 33 30 29 29 31 30 29 30 31 29 26 31 30 31 32 31 32 34 36 37 39 41 44 48 51 54 58 57 59 58 60 57 49 46 33 25 30 27 27 25 26 27 30
31 32 29 28 28 29 30 29 28 30 30 25 28 31 32 33 32 34 35 37 36 37 41 44 45 49 53 54 58 56 58 57 58 56 52 40 43 22 28 30 31 30 26 26 27
27 28 28 28 29 31 31 31 31 29 30 25 31 33 35 37 40 35 36 36 37 41 42 47 49 52 54 55 57 55 55 57 55 52 51 40 31 28 18 32 29 30 29 29 25
30 28 28 31 31 31 30 30 31 32 31 33 34 36 38 38 39 36 36 36 40 41 43 45 50 52 53 54 55 57 55 56 54 52 46 32 27 27 21 32 30 31 34 31 28
32 31 31 32 33 34 34 34 34 34 33 34 36 37 40 43 37 35 37 40 44 45 47 51 52 51 54 55 58 58 57 57 53 41 37 24 30 32 27 30 27 32 36 34 30
34 33 35 35 34 33 32 33 34 33 36 37 38 40 42 40 35 34 37 40 41 45 47 49 54 54 54 55 58 55 53 51 50 47 40 38 38 22 28 30 28 28 36 40 34
34 35 36 35 35 36 34 34 35 37 41 42 43 42 41 36 36 36 38 41 43 44 47 51 53 53 55 56 58 56 54 50 49 47 44 34 27 26 21 32 31 28 32 43 39
34 35 36 34 35 36 35 35 37 42 45 44 42 42 41 39 37 37 40 43 44 46 48 51 54 53 54 55 55 54 53 48 44 45 42 27 27 27 23 30 36 31 34 35 43
35 34 36 37 37 36 36 37 39 44 47 43 40 41 39 37 38 40 41 45 45 48 49 52 55 55 56 56 56 55 53 48 46 43 43 44 30 22 35 37 36 34 36 32 37
33 35 37 38 39 38 38 40 41 44 44 43 39 38 37 40 39 40 42 45 46 48 50 54 56 55 55 55 54 54 49 44 45 40 44 43 43 30 30 31 36 36 36 30 30
36 37 38 40 41 40 39 39 41 43 44 41 38 37 37 38 43 41 42 45 47 48 51 54 57 56 58 58 55 54 48 44 44 44 43 40 39 23 31 30 34 37 36 30 22
40 38 39 41 41 40 39 38 44 44 43 43 38 40 41 39 44 43 45 45 48 49 52 56 56 55 56 54 52 55 46 41 41 42 38 36 36 30 21 28 32 31 30 26 22
43 41 40 41 39 38 38 41 45 48 45 42 40 42 42 41 43 45 45 47 50 51 52 56 57 56 57 54 53 52 44 36 38 39 39 37 36 28 26 27 26 28 29 28 28
46 44 44 45 44 43 43 45 48 47 47 43 39 42 42 41 44 46 47 50 52 52 52 56 55 59 57 52 54 51 39 39 39 37 38 32 36 24 27 27 29 29 29 31 29
49 50 52 52 49 45 47 50 47 47 43 39 38 38 41 43 45 46 49 53 55 55 57 55 55 58 56 52 53 45 40 39 39 33 30 33 31 31 29 28 29 29 28 29 27
Wind_Direction
292 291 290 289 289 288 287 287 288 289 289 289 289 285 281 281 280 281 282 283 283 283 284 286 288 289 290 291 290 290 290 292 293 292 293 292 290 289 287 285 281 277 271 267 263
290 289 288 286 285 285 285 286 286 287 286 288 288 289 286 283 284 284 285 286 288 289 289 293 292 291 292 291 291 290 293 296 296 296 295 294 293 293 289 287 283 279 275 266 260
290 287 287 286 285 285 283 283 283 285 287 289 290 291 289 287 285 286 288 290 292 293 295 295 294 294 293 293 291 292 296 296 298 297 297 296 294 294 291 289 288 284 273 266 254
305 303 299 297 295 293 291 289 287 287 288 289 289 290 289 290 292 290 289 291 295 297 297 297 296 294 292 293 294 296 297 300 301 301 301 301 298 299 299 295 288 280 272 262 252
313 312 311 309 307 303 301 300 298 294 292 292 293 294 295 293 293 293 294 297 298 298 299 298 295 294 295 297 298 302 303 305 306 304 306 308 307 309 303 291 281 273 265 258 255
321 316 310 312 308 308 306 305 302 300 297 297 300 302 300 297 295 298 299 298 298 298 297 296 297 299 301 303 305 307 307 310 311 313 314 311 312 309 297 285 277 275 273 268 259
322 320 313 311 312 310 308 306 301 299 300 303 305 305 302 301 301 300 299 300 298 298 298 298 299 300 305 308 310 310 312 317 321 320 318 317 316 303 292 286 282 275 264 252 244
322 319 318 317 315 312 311 306 299 299 301 307 307 306 306 305 303 303 303 298 298 298 299 302 305 308 312 312 312 317 320 324 326 325 323 319 319 305 291 287 286 283 264 251 245
320 320 317 318 317 315 312 306 303 306 307 310 310 309 309 309 309 306 302 300 299 300 305 308 311 313 314 316 320 322 326 329 329 326 324 321 319 304 288 285 287 275 260 258 248
314 316 318 316 317 315 314 309 304 307 312 313 312 313 310 310 306 304 303 303 306 309 312 314 315 316 319 323 326 329 330 331 329 325 329 323 314 301 293 290 287 279 265 262 254
315 314 316 312 314 316 317 313 313 311 314 316 318 316 314 310 307 307 309 312 313 315 317 317 320 323 325 326 329 330 330 330 327 329 329 322 311 304 296 292 285 283 262 259 241
322 320 320 318 312 312 315 311 313 320 319 318 321 327 321 320 318 314 314 315 317 320 320 320 322 325 327 329 331 330 330 329 330 327 325 320 311 299 293 287 288 286 274 257 241
328 323 319 320 321 317 318 316 316 315 317 316 319 330 330 324 322 320 318 317 320 322 322 322 324 327 329 330 331 328 327 327 326 327 323 317 310 290 290 291 293 293 276 259 246
319 320 320 320 321 320 318 315 314 312 317 311 316 328 332 333 327 322 321 320 322 324 326 324 325 330 330 330 329 326 327 326 324 323 321 312 305 290 281 286 286 292 285 261 247
317 317 326 328 324 324 325 323 319 318 320 316 319 322 324 328 330 323 322 323 325 328 329 326 330 332 328 328 325 324 326 324 321 321 316 316 293 302 298 284 284 283 286 282 256
307 313 322 321 322 322 321 324 326 326 328 323 321 320 322 326 326 324 322 326 328 330 328 327 328 328 326 324 323 323 324 321 320 320 316 317 294 295 293 283 275 273 275 277 273
300 300 306 317 319 322 323 327 329 329 329 327 324 324 326 327 327 325 324 329 329 331 331 330 328 328 325 325 324 322 324 320 321 315 312 304 294 304 301 290 287 263 264 269 277
303 300 301 308 312 317 319 324 329 331 331 328 325 325 326 327 327 326 324 327 328 327 328 328 325 328 326 324 322 321 322 318 318 315 305 295 296 300 285 288 290 281 266 260 262
297 299 300 307 312 315 318 323 326 329 327 324 321 324 325 327 326 325 326 326 327 327 327 325 326 326 325 323 321 320 319 320 316 315 307 311 307 293 301 296 292 290 273 261 255
296 300 301 304 308 311 313 318 323 324 324 321 317 322 323 325 325 326 327 327 328 325 327 325 325 323 323 322 319 319 318 318 318 311 304 294 292 296 283 264 292 294 288 274 258
295 295 298 301 304 307 308 314 318 320 321 322 319 321 320 323 325 325 325 325 327 325 325 324 325 323 323 320 319 320 320 317 315 310 301 298 293 277 281 289 293 302 301 288 261
296 297 296 299 302 306 306 309 311 317 319 321 320 319 319 321 322 324 324 322 324 323 323 323 322 322 320 317 317 318 319 317 309 307 298 297 300 305 290 293 295 302 313 306 265
295 297 298 299 300 302 305 306 309 314 317 317 319 320 320 321 318 322 323 320 322 321 321 321 322 319 318 318 318 318 319 317 309 303 308 296 296 299 296 300 298 308 309 310 285
292 296 297 296 298 302 305 306 306 306 309 311 314 315 318 319 316 318 319 320 321 319 318 318 319 316 316 316 314 316 320 314 306 300 307 292 295 288 281 284 298 302 306 298 284
292 294 296 295 296 299 300 302 302 302 304 304 307 312 314 316 315 316 317 319 318 318 317 317 318 313 315 317 314 315 320 310 301 300 290 293 286 296 279 283 291 292 292 300 281
289 291 293 292 294 297 299 299 298 299 302 303 307 310 314 314 316 316 318 318 317 316 316 315 317 312 315 315 313 318 319 310 306 298 294 286 284 282 277 282 288 284 289 296 281
286 288 290 293 293 298 300 298 297 301 304 304 307 311 313 315 315 316 316 317 316 317 318 316 313 310 315 313 314 320 315 313 311 303 285 280 286 285 285 292 283 282 285 295 283